This is the latest recevied weather packets stored in our database for station/object HS5BOG-13. If no packets are shown the sender has not sent any weather packets the latest 10 day(s).
| Time | Temp. | Humidity | Pressure | Rain* | Wind** | Luminosity | Snow |
|---|---|---|---|---|---|---|---|
| 1778251154 | 29.44° C | 73% | 993.2 hPa | - | - | - | - |
| 1778250549 | 29.44° C | 72% | 993.3 hPa | - | - | - | - |
| 1778249943 | 29.44° C | 70% | 993.1 hPa | - | - | - | - |
| 1778249353 | 29.44° C | 69% | 993 hPa | - | - | - | - |
| 1778248729 | 29.44° C | 68% | 992.7 hPa | - | - | - | - |
| 1778248124 | 29.44° C | 68% | 992.4 hPa | - | - | - | - |
| 1778247518 | 29.44° C | 69% | 992.1 hPa | - | - | - | - |
| 1778246912 | 29.44° C | 69% | 992.1 hPa | - | - | - | - |
| 1778246307 | 30° C | 68% | 992 hPa | - | - | - | - |
| 1778245701 | 29.44° C | 67% | 991.7 hPa | - | - | - | - |
| 1778245095 | 30° C | 65% | 991.5 hPa | - | - | - | - |
| 1778244490 | 30° C | 67% | 991.1 hPa | - | - | - | - |
| 1778243884 | 30° C | 66% | 991.1 hPa | - | - | - | - |
| 1778243279 | 30° C | 65% | 990.9 hPa | - | - | - | - |
| 1778242673 | 30.56° C | 64% | 991 hPa | - | - | - | - |
| 1778242068 | 30.56° C | 63% | 990.8 hPa | - | - | - | - |
| 1778241462 | 30.56° C | 63% | 990.8 hPa | - | - | - | - |
| 1778240857 | 30.56° C | 63% | 990.9 hPa | - | - | - | - |
| 1778240251 | 30° C | 61% | 990.8 hPa | - | - | - | - |
| 1778239645 | 30.56° C | 61% | 990.7 hPa | - | - | - | - |
| 1778239040 | 30.56° C | 58% | 990.6 hPa | - | - | - | - |
| 1778238434 | 31.11° C | 59% | 990.6 hPa | - | - | - | - |
| 1778237828 | 31.11° C | 59% | 990.4 hPa | - | - | - | - |
| 1778237223 | 31.11° C | 57% | 990.3 hPa | - | - | - | - |
| 1778236617 | 31.11° C | 56% | 990.2 hPa | - | - | - | - |
* Rain since midnight (hover to see other rain measurements)
** Current wind speed in m/s (hover to see current wind gust speed)